Regional Weather Roundup
Issued by NWS Columbia, SC

Home | Current Version | Previous Version | Text Only | Print | Product List | Glossary On
Versions: 1 2 3 4 5 6 7 8 9 10 11 12 13 14 15 16 17 18 19 20 21 22 23 24 25 26 27 28 29 30 31 32 33 34 35 36 37 38 39 40 41 42 43 44 45 46 47 48 49 50
283
ASUS42 KCAE 302010
RWRCAE
REGIONAL WEATHER ROUNDUP
NATIONAL WEATHER SERVICE COLUMBIA SC
400 PM EDT THU MAR 30 2017

NOTE: "FAIR" INDICATES FEW OR NO CLOUDS BELOW 12,000 FEET WITH NO
SIGNIFICANT WEATHER AND/OR OBSTRUCTIONS TO VISIBILITY.

NOT ALL STATIONS ARE QUALITY CONTROLLED BY THE NATIONAL
WEATHER SERVICE. USE DATA WITH CAUTION...ESPECIALLY
DEWPOINT OBSERVATIONS.

SCZ001>056-GAZ040-063>065-077-302100-
...UPSTATE SOUTH CAROLINA...

CITY           SKY/WX    TMP DP  RH WIND       PRES   REMARKS
ANDERSON       LGT RAIN  69  63  81 E3        29.91F
LIBERTY        MOCLDY    69  62  77 NE7       29.93F
SPARTANBURG    CLOUDY    64  61  88 E6        29.95F
CLEMSON        PTSUNNY   73  61  65 CALM      29.92F
GREENVILLE     CLOUDY    65  62  90 E7        29.94F
GREENWOOD      PTSUNNY   74  61  63 S9        29.92F
GREER          CLOUDY    64  61  90 NE8       29.93F FOG
ROCK HILL      PTSUNNY   69  58  67 SE7       29.97F
CHESTER        CLOUDY    66  61  82 NE3       29.97F
LAURENS        MOCLDY    68  64  88 E7        29.93F


...CENTRAL SOUTH CAROLINA...

CITY           SKY/WX    TMP DP  RH WIND       PRES   REMARKS
COLUMBIA APT   CLOUDY    70  66  87 E14       29.95R
COLUMBIA OWENS TSTM      66  64  93 SE5       29.99R VSB 1/4
MCENTIRE ANGB  TSTM      74  64  70 S13G29    29.96R
ORANGEBURG     TSTM      65  62  90 S9        29.98R
SUMTER SHAW    CLOUDY    75  60  59 SE13G26   29.94S
NEWBERRY       LGT RAIN  72  63  73 NE3       29.96F
AIKEN          MOCLDY    77  59  53 SW10      29.96F
BARNWELL       FAIR      75  66  73 SE10      29.93F
MANNING        MOCLDY    72  59  64 SE9G22    29.99R
CAMDEN         CLOUDY    75  61  60 E7G16     29.94F
LANCASTER      CLOUDY    72  61  68 E6        29.96F
WINNSBORO      CLOUDY    63  63 100 SE3       29.97F


...EASTERN AND COASTAL SOUTH CAROLINA...

CITY           SKY/WX    TMP DP  RH WIND       PRES   REMARKS
MYRTLE BEACH   CLOUDY    66  57  72 E10       30.05F
N MYRTLE BCH   MOSUNNY   68  57  68 E14G21    30.04F
CONWAY         MOCLDY    70  55  60 SE12G18   30.04F HAZE
MARION         FAIR      72  55  56 SE13G21   30.00F
HARTSVILLE     CLOUDY    73  55  53 SE13G22   29.96F
FLORENCE       MOSUNNY   75  58  55 SE21      29.98F
DARLINGTON     PTSUNNY   77  59  53 SE15      29.97F
CHARLESTON APT PTSUNNY   71  62  73 E21       29.99F
MOUNT PLEASANT MOCLDY    70  64  83 E7G20     30.00F
WALTERBORO     CLOUDY    72  64  78 SE7       29.98S
BEAUFORT       CLOUDY    73  68  84 E16       29.96F THUNDER


...EASTERN GEORGIA...

CITY           SKY/WX    TMP DP  RH WIND       PRES   REMARKS
AUGUSTA BUSH F CLOUDY    81  65  58 SE16      29.89F
AUGUSTA DANIEL CLOUDY    80  60  50 E13       29.91F
THOMSON        PTSUNNY   79  61  53 SW8       29.95F
WASHINGTON     FAIR      82  59  44 SW8       29.89F
CLAXTON        FAIR     N/A N/A N/A E7        29.92F
SYLVANIA       CLOUDY   N/A N/A N/A SE6       29.94F
STATESBORO     PTSUNNY   77  69  76 S5        29.93F
SAVANNAH       CLOUDY    80  61  52 E10       29.94F


...SOUTHERN NORTH CAROLINA...

CITY           SKY/WX    TMP DP  RH WIND       PRES   REMARKS
CHARLOTTE      LGT RAIN  66  57  72 E8        29.98F
MONROE         CLOUDY    69  55  60 VRB3      29.97F
WADESBORO      MOCLDY    74  54  50 E10       29.98F
ROCKINGHAM     CLOUDY    74  56  53 E13       29.98F
RUTHERFORDTON  CLOUDY    59  59 100 E6        29.97F
ASHEVILLE      CLOUDY    59  55  87 SE10      29.95F

$$




USA.gov is the U.S. government's official web portal to all federal, state and local government web resources and services.